CW7241 Weather Reports


time (UTC)temp
C
wind
direction
speed
KPH
gust
KPH
rain 1hr
cm
rain 24hr
cm
rain mn
cm
humidity
%
barometer
mb
20260503060105 0 336 0.0 0.0 0.00 0.03 0.00 94 1016.5
20260503055105 0 336 0.0 0.0 0.00 0.03 0.00 93 1016.6
20260503054608 0 336 0.0 0.0 0.00 0.03 0.00 93 1016.7
20260503054109 0 336 0.0 0.0 0.00 0.03 0.00 93 1016.7
20260503053605 0 336 0.0 0.0 0.00 0.03 0.00 93 1016.7
20260503053106 0 336 0.0 0.0 0.00 0.03 0.00 93 1016.7
20260503052606 0 336 0.0 0.0 0.00 0.03 0.00 93 1016.8
20260503052108 0 336 0.0 0.0 0.00 0.03 0.00 92 1016.7
20260503051605 0 336 0.0 0.0 0.00 0.03 0.00 92 1016.8
20260503051106 0 336 0.0 0.0 0.00 0.03 0.00 92 1016.8
20260503050606 0 336 0.0 0.0 0.00 0.03 0.00 92 1016.7
20260503050105 0 336 0.0 0.0 0.00 0.03 0.00 92 1016.7
20260503045605 0 336 0.0 0.0 0.00 0.03 0.00 92 1016.8
20260503045105 0 336 0.0 0.0 0.00 0.03 0.00 92 1016.9
20260503044605 0 336 0.0 0.0 0.00 0.03 0.00 91 1016.8
20260503044105 0 336 0.0 0.0 0.00 0.03 0.00 91 1016.8
20260503043606 0 336 0.0 0.0 0.00 0.03 0.00 91 1016.8
20260503043105 0 336 0.0 0.0 0.00 0.03 0.00 90 1016.7
20260503042605 1 336 0.0 0.0 0.00 0.03 0.00 90 1016.7
20260503042106 1 336 0.0 0.0 0.00 0.03 0.00 90 1016.7
20260503041605 1 336 0.0 0.0 0.00 0.03 0.00 90 1016.7
20260503041108 1 336 0.0 0.0 0.00 0.03 0.00 89 1016.7
20260503040608 1 336 0.0 0.0 0.00 0.03 0.00 89 1016.7
20260503040105 1 336 0.0 0.0 0.00 0.03 0.00 89 1016.8
20260503035605 1 336 0.0 0.0 0.00 0.03 0.00 89 1016.9
20260503035105 1 336 0.0 0.0 0.00 0.03 0.00 88 1016.9
20260503034605 1 336 0.0 0.0 0.00 0.03 0.00 88 1016.9
20260503034105 1 336 0.0 0.0 0.00 0.03 0.00 87 1016.9
20260503033608 1 336 0.0 0.0 0.00 0.03 0.00 87 1017.0
20260503033108 1 336 0.0 0.0 0.00 0.03 0.00 86 1016.9
20260503032605 1 336 0.0 0.0 0.00 0.03 0.00 86 1017.0
20260503032105 1 336 0.0 0.0 0.00 0.03 0.00 85 1017.1
20260503031608 1 336 0.0 0.0 0.00 0.03 0.00 84 1017.0
20260503031107 2 336 0.0 0.0 0.00 0.03 0.00 84 1017.0
20260503030606 2 336 0.0 0.0 0.00 0.03 0.00 83 1017.1
20260503030105 2 336 0.0 0.0 0.00 0.03 0.00 82 1017.0
20260503025605 2 336 0.0 0.0 0.00 0.03 0.00 82 1017.1
20260503025106 2 336 0.0 0.0 0.00 0.03 0.00 80 1017.1
20260503024608 2 336 0.0 0.0 0.00 0.03 0.00 80 1017.1
20260503024106 2 336 0.0 0.0 0.00 0.03 0.00 79 1017.1
20260503023606 3 336 0.0 0.0 0.00 0.03 0.00 78 1017.0
20260503023105 3 336 0.0 0.0 0.00 0.03 0.00 78 1017.0
20260503022609 3 336 0.0 0.0 0.00 0.03 0.00 77 1017.0
20260503022105 3 336 0.0 0.0 0.00 0.03 0.00 76 1016.9
20260503021605 3 336 0.0 0.0 0.00 0.03 0.00 76 1016.9
20260503021105 3 336 0.0 0.0 0.00 0.03 0.00 76 1016.9
20260503020606 4 336 0.0 0.0 0.00 0.03 0.00 75 1016.8
20260503020105 4 336 0.0 0.0 0.00 0.03 0.00 74 1016.9
20260503015609 4 336 0.0 0.0 0.00 0.03 0.00 74 1016.8
20260503015106 4 336 0.0 0.0 0.00 0.03 0.00 74 1016.8
20260503014606 4 336 0.0 0.0 0.00 0.03 0.00 73 1016.7
20260503014110 5 336 0.0 0.0 0.00 0.05 0.00 73 1016.6
20260503013605 5 336 0.0 0.0 0.00 0.05 0.00 72 1016.6
20260503013105 5 336 0.0 0.0 0.00 0.05 0.00 72 1016.6
20260503012606 5 336 0.0 0.0 0.00 0.05 0.00 71 1016.6
20260503012106 5 336 0.0 0.0 0.00 0.05 0.00 70 1016.6
20260503011605 5 336 0.0 0.0 0.00 0.05 0.00 69 1016.5
20260503011105 5 336 0.0 0.0 0.00 0.05 0.00 68 1016.5
20260503010605 5 336 0.0 0.0 0.00 0.05 0.00 67 1016.5
20260503010106 5 336 0.0 0.0 0.00 0.05 0.00 66 1016.7
20260503005606 5 336 0.0 0.0 0.00 0.05 0.00 66 1016.7
20260503005106 5 336 0.0 0.0 0.00 0.05 0.00 65 1016.6
20260503004605 5 336 0.0 3.2 0.00 0.05 0.00 65 1016.6
20260503004105 5 336 0.0 0.0 0.00 0.05 0.00 64 1016.6
20260503003605 5 336 0.0 0.0 0.00 0.05 0.00 63 1016.6
20260503003108 5 336 0.0 0.0 0.00 0.08 0.00 62 1016.6
20260503002605 5 336 0.0 0.0 0.00 0.08 0.00 61 1016.5
20260503002106 5 336 0.0 0.0 0.00 0.08 0.00 60 1016.6
20260503001606 6 336 0.0 3.2 0.00 0.08 0.00 59 1016.3
20260503001108 6 336 0.0 4.8 0.00 0.08 0.00 59 1016.3
20260503000613 6 336 0.0 6.4 0.00 0.08 0.00 59 1016.3
20260503000105 6 336 0.0 3.2 0.00 0.08 0.00 59 1016.4
20260502235605 6 336 3.2 6.4 0.00 0.08 0.00 58 1016.3
20260502235106 6 340 3.2 8.0 0.00 0.08 0.00 57 1016.3
20260502234605 6 294 1.6 3.2 0.00 0.08 0.00 57 1016.4
20260502234105 6 294 0.0 8.0 0.00 0.08 0.00 57 1016.3
20260502233606 6 22 0.0 9.7 0.00 0.08 0.00 57 1016.3
20260502233105 6 255 0.0 8.0 0.00 0.08 0.00 57 1016.2
20260502232608 6 313 0.0 6.4 0.00 0.08 0.00 57 1016.2
20260502232106 6 312 0.0 4.8 0.00 0.08 0.00 58 1016.2
20260502231605 6 312 3.2 6.4 0.00 0.08 0.00 56 1016.2
20260502231108 6 315 0.0 9.7 0.00 0.08 0.00 57 1016.2
20260502230605 6 305 9.7 11.3 0.00 0.08 0.00 57 1016.2
20260502230105 6 0 8.0 8.0 0.00 0.08 0.00 56 1016.3
20260502225605 6 281 3.2 6.4 0.00 0.08 0.00 56 1016.2
20260502225106 6 284 0.0 8.0 0.00 0.08 0.00 57 1016.3
20260502224605 6 306 6.4 8.0 0.00 0.08 0.00 56 1016.3
20260502224109 6 328 0.0 9.7 0.00 0.08 0.00 55 1016.3
20260502223606 6 338 6.4 17.7 0.00 0.08 0.00 55 1016.3
20260502223105 6 327 3.2 14.5 0.00 0.08 0.00 54 1016.2
20260502222605 6 5 8.0 11.3 0.00 0.08 0.00 56 1016.1
20260502222105 6 5 1.6 16.1 0.00 0.08 0.00 57 1016.1
20260502221606 6 329 4.8 19.3 0.00 0.08 0.00 55 1016.2
20260502221106 6 5 3.2 11.3 0.00 0.08 0.00 57 1016.2
20260502220605 6 13 4.8 17.7 0.00 0.08 0.00 57 1016.2
20260502220110 6 308 0.0 11.3 0.00 0.08 0.00 57 1016.0
20260502215605 6 9 8.0 19.3 0.00 0.08 0.00 57 1015.9
20260502215105 6 333 3.2 17.7 0.00 0.08 0.00 58 1016.0
20260502214606 7 296 3.2 11.3 0.00 0.08 0.00 57 1015.9
20260502214108 7 301 6.4 16.1 0.00 0.08 0.00 58 1015.9
20260502213605 7 5 4.8 14.5 0.00 0.08 0.00 57 1015.8
20260502213105 7 285 9.7 12.9 0.00 0.08 0.00 56 1015.8
20260502212605 7 251 0.0 17.7 0.00 0.08 0.00 54 1015.9
20260502212106 7 0 9.7 20.9 0.00 0.08 0.00 55 1015.8
20260502211608 7 330 3.2 16.1 0.00 0.08 0.00 52 1015.6
20260502211105 7 303 9.7 16.1 0.00 0.08 0.00 52 1015.6
20260502210609 7 277 6.4 14.5 0.00 0.08 0.00 54 1015.6
20260502210105 7 15 1.6 14.5 0.00 0.08 0.00 52 1015.6
20260502205605 7 300 6.4 16.1 0.00 0.08 0.00 53 1015.6
20260502205108 7 328 0.0 11.3 0.00 0.08 0.00 53 1015.6
20260502204605 7 281 4.8 19.3 0.00 0.08 0.00 53 1015.6
20260502204105 7 269 0.0 17.7 0.00 0.08 0.00 55 1015.5
20260502203605 7 292 1.6 17.7 0.00 0.08 0.00 54 1015.5
20260502203105 7 307 3.2 11.3 0.00 0.08 0.00 54 1015.6
20260502202605 7 12 12.9 14.5 0.00 0.08 0.00 55 1015.5
20260502202106 7 261 6.4 20.9 0.00 0.08 0.00 55 1015.6
20260502201605 7 319 9.7 27.4 0.00 0.08 0.00 54 1015.5
20260502201105 7 297 11.3 16.1 0.00 0.08 0.00 55 1015.6
20260502200606 7 292 8.0 14.5 0.00 0.08 0.00 57 1015.7
20260502200105 7 306 3.2 19.3 0.00 0.08 0.00 58 1015.6
20260502195606 7 269 6.4 11.3 0.00 0.08 0.00 57 1015.5
20260502195109 7 233 0.0 14.5 0.00 0.08 0.00 57 1015.6
20260502194609 7 49 3.2 22.5 0.00 0.08 0.00 57 1015.7
20260502194105 7 55 4.8 11.3 0.00 0.08 0.00 60 1015.7
20260502193606 7 344 0.0 17.7 0.00 0.08 0.00 60 1015.7
20260502193105 7 0 0.0 17.7 0.00 0.08 0.00 60 1015.7
20260502192606 7 63 1.6 22.5 0.00 0.08 0.00 61 1015.8
20260502192106 7 355 9.7 16.1 0.00 0.08 0.00 61 1015.8
20260502191105 7 0 8.0 16.1 0.00 0.08 0.00 61 1015.7
20260502190606 7 292 8.0 20.9 0.00 0.08 0.00 56 1015.8
20260502190105 7 271 4.8 17.7 0.00 0.08 0.00 55 1015.7
20260502185605 7 253 8.0 16.1 0.00 0.08 0.00 55 1015.7
20260502185106 7 342 1.6 11.3 0.00 0.08 0.00 56 1015.7
20260502184605 7 355 6.4 20.9 0.00 0.08 0.00 56 1015.7
20260502184105 7 310 9.7 22.5 0.00 0.08 0.00 56 1015.7
20260502183606 7 295 14.5 16.1 0.00 0.08 0.00 55 1015.7
20260502183105 7 287 4.8 17.7 0.00 0.08 0.00 51 1015.6
20260502182608 7 13 1.6 19.3 0.00 0.08 0.00 49 1015.6
20260502182106 7 349 3.2 16.1 0.00 0.08 0.00 52 1015.7
20260502181608 7 277 1.6 9.7 0.00 0.08 0.00 54 1015.7
20260502181108 7 308 1.6 11.3 0.00 0.08 0.00 55 1015.8
20260502180606 7 302 1.6 20.9 0.00 0.08 0.00 52 1015.8
20260502180105 7 290 3.2 16.1 0.00 0.08 0.00 53 1015.7
20260502170105 6 310 1.6 16.1 0.00 0.08 0.00 54 1015.8
20260502164105 6 307 8.0 14.5 0.00 0.08 0.00 55 1015.9
20260502163606 6 341 6.4 17.7 0.00 0.08 0.00 53 1015.9
20260502163105 7 328 3.2 16.1 0.00 0.08 0.00 54 1016.0
20260502162610 7 226 9.7 17.7 0.00 0.08 0.00 56 1015.9
20260502162105 6 315 3.2 19.3 0.00 0.10 0.00 51 1016.1
20260502161605 7 298 11.3 20.9 0.00 0.10 0.00 52 1016.0
20260502161109 7 298 14.5 24.1 0.00 0.10 0.00 56 1015.9
20260502160606 6 267 4.8 16.1 0.00 0.13 0.00 56 1015.9
20260502160105 6 307 6.4 17.7 0.00 0.15 0.00 59 1016.1
20260502151605 6 293 11.3 29.0 0.00 0.23 0.00 57 1015.8
20260502151109 6 290 3.2 19.3 0.00 0.23 0.00 57 1015.8
20260502150605 6 240 9.7 20.9 0.00 0.25 0.00 59 1015.8
20260502150105 6 252 3.2 19.3 0.00 0.25 0.00 59 1015.6
20260502140108 6 313 6.4 20.9 0.00 0.36 0.00 63 1015.5
20260502130605 4 302 0.0 8.0 0.00 0.43 0.00 70 1015.5
20260502130105 3 319 4.8 8.0 0.00 0.43 0.00 70 1015.6
20260502123609 3 275 4.8 16.1 0.00 0.43 0.00 72 1015.4
20260502123105 3 292 0.0 14.5 0.00 0.43 0.00 71 1015.4
20260502122605 3 311 0.0 12.9 0.00 0.43 0.00 71 1015.4
20260502122111 3 286 6.4 8.0 0.00 0.43 0.00 72 1015.4
20260502121605 3 275 3.2 8.0 0.00 0.43 0.00 73 1015.3
20260502121105 2 274 0.0 14.5 0.00 0.43 0.00 73 1015.2
20260502120605 2 326 6.4 11.3 0.00 0.43 0.00 73 1015.3
20260502120108 2 276 9.7 14.5 0.00 0.43 0.00 74 1015.1
20260502115605 2 309 4.8 11.3 0.00 0.43 0.00 76 1015.1
20260502115108 2 316 0.0 9.7 0.00 0.43 0.00 77 1015.1
20260502114605 2 307 4.8 6.4 0.00 0.43 0.00 80 1015.2
20260502114106 2 311 0.0 9.7 0.00 0.43 0.00 80 1015.1
20260502113605 2 309 0.0 4.8 0.00 0.43 0.00 81 1015.2
20260502113106 1 310 0.0 4.8 0.00 0.43 0.00 82 1015.2
20260502112606 1 309 0.0 3.2 0.00 0.43 0.00 82 1015.3
20260502112105 1 309 0.0 1.6 0.00 0.43 0.00 82 1015.4
20260502111605 1 309 0.0 1.6 0.00 0.43 0.00 82 1015.4
20260502111105 1 309 0.0 3.2 0.00 0.43 0.00 82 1015.4
20260502110606 1 309 0.0 0.0 0.00 0.43 0.00 83 1015.3
20260502110105 1 309 0.0 3.2 0.00 0.43 0.00 82 1015.3
20260502105605 1 309 0.0 6.4 0.00 0.43 0.00 82 1015.2
20260502105105 1 314 0.0 4.8 0.00 0.43 0.00 83 1015.3
20260502104605 1 319 0.0 6.4 0.00 0.43 0.00 83 1015.2
20260502104105 1 271 0.0 8.0 0.00 0.43 0.00 83 1015.2
20260502103606 1 268 1.6 6.4 0.00 0.43 0.00 83 1015.2
20260502103105 1 267 0.0 11.3 0.00 0.43 0.00 84 1015.3
20260502102608 1 269 0.0 9.7 0.00 0.43 0.00 85 1015.3
20260502102108 1 294 0.0 6.4 0.00 0.43 0.00 85 1015.3
20260502101608 1 294 0.0 8.0 0.00 0.43 0.00 86 1015.2
20260502101105 1 291 0.0 4.8 0.00 0.43 0.00 86 1015.2
20260502100610 1 291 0.0 3.2 0.00 0.43 0.00 86 1015.2
20260502100105 1 291 0.0 0.0 0.00 0.43 0.00 86 1015.4
20260502091105 1 291 0.0 0.0 0.00 0.43 0.00 87 1015.5
20260502090605 1 291 0.0 0.0 0.00 0.43 0.00 87 1015.5
20260502090105 1 291 0.0 3.2 0.00 0.43 0.00 88 1015.3
20260502080109 1 290 0.0 0.0 0.03 0.43 0.00 96 1015.2
20260502071106 2 291 0.0 0.0 0.00 0.41 0.00 98 1015.3
20260502070608 2 291 0.0 0.0 0.00 0.41 0.00 98 1015.3
20260502070105 2 291 0.0 6.4 0.00 0.41 0.00 98 1015.2
20260502065605 2 291 0.0 4.8 0.00 0.41 0.00 100 1015.2
20260502065105 2 291 0.0 4.8 0.00 0.41 0.00 98 1015.4
20260502064606 2 291 3.2 6.4 0.00 0.41 0.00 99 1015.4
20260502064108 2 295 0.0 4.8 0.00 0.41 0.00 98 1015.4
20260502063605 2 295 0.0 4.8 0.00 0.41 0.00 98 1015.4